Location: Middlebury
(44.0153°N, 73.1678°W)
Time: 15:33:47
(UTC-04:00)

UWE-3 - Pass Details

Date: 26 June 2024
Orbit: 566 x 652 km, 97.8° (Epoch: 21 July)

Event Time Altitude Azimuth Distance (km) Brightness Sun altitude
Rises 03:02:46 0° 18° (NNE) 2,857 ? -16.6°
Reaches altitude 10° 03:05:03 10° 25° (NNE) 1,935 ? -16.4°
Maximum altitude 03:09:05 46° 99° (E) 792 ? -16.0°
Enters shadow 03:11:49 18° 166° (SSE) 1,426 ? -15.8°
